Tracking 29892 objects as of 21-Nov-2024
HD Live streaming from Space Station
objects crossing your sky now

STARLINK-4466

Track STARLINK-4466 now!
10-day predictions


NORAD ID: 53656
Int'l Code: 2022-105J
Perigee: 567.9 km
Apogee: 572.3 km
Inclination: 97.7 °
Period: 95.9 minutes
Semi major axis: 6941 km
RCS: Unknown
Launch date: August 31, 2022
Source: United States (US)
Launch site: AIR FORCE WESTERN TEST RANGE (AFWTR)
Your satellite tracking list
Your tracking list is empty




NASA's NSSDC Master Catalog

Two Line Element Set (TLE):
1 53656U 22105J   24325.66144523  .00004828  00000-0  38009-3 0  9997
2 53656  97.6543 204.2597 0003148  85.0503 275.1080 15.01267178122115
Source of the keplerian elements: AFSPC